Location: *
(50.9167°S, 179.4000°W)
Time: 19:51:04
(UTC+00:00)

COSMOS 2428 - Pass Details

Date: 23 June 2024
Orbit: 843 x 857 km, 70.9° (Epoch: 17 July)

Event Time Altitude Azimuth Distance (km) Brightness Sun altitude
Exits shadow 18:23:44 - 200° (SSW) 2,863 5.1 -14.4°
Reaches altitude 10° 18:25:08 10° 190° (S) 2,524 4.9 -14.2°
Maximum altitude 18:28:41 16° 152° (SSE) 2,101 4.8 -13.7°
Drops below altitude 10° 18:32:13 10° 114° (ESE) 2,509 5.8 -13.1°
Sets 18:35:42 0° 93° (E) 3,436 7.2 -12.6°
